Regional Weather Roundup
Issued by NWS

Home | Current Version | Previous Version | Graphics & Text | Print | Product List | Glossary On
Versions: 1 2 3 4 5 6 7 8 9 10 11 12 13 14 15 16 17 18 19 20 21 22 23 24 25 26 27
000
ASUS45 KPSR 200910
RWRAZ

ARIZONA HOURLY REGIONAL WEATHER ROUNDUP
NATIONAL WEATHER SERVICE PHOENIX AZ
200 AM MST TUE FEB 20 2018

NOTE: FAIR INDICATES FEW OR NO CLOUDS BELOW 12,000 FEET WITH NO
SIGNIFICANT WEATHER AND/OR OBSTRUCTIONS TO VISIBILITY.

AZZ001>003-036-201000-
NORTHWEST ARIZONA

CITY           SKY/WX    TMP DP  RH WIND       PRES   REMARKS
BULLHEAD CITY  CLEAR     39  14  35 CALM      30.02R
KINGMAN        CLEAR     25  13  60 SW3       29.94R
$$

AZZ004>008-015-016-018-201000-
NORTH CENTRAL ARIZONA

CITY           SKY/WX    TMP DP  RH WIND       PRES   REMARKS
GRAND CANYON   PTCLDY    -1  -3  91 NE5       29.83R WCI -11
WILLIAMS       CLOUDY    18  10  73 SW6       29.82R WCI   9
PRESCOTT       PTCLDY    24  11  57 E3        29.89R
FLAGSTAFF      PTCLDY    17   7  64 W7        29.81R WCI   8
PAYSON         MOCLDY    28   3  34 W5        29.89R WCI  23
PAGE           CLEAR     30   4  33 W6        29.84R WCI  24
$$

AZZ009>014-017-201000-
NORTHEAST ARIZONA

CITY           SKY/WX    TMP DP  RH WIND       PRES   REMARKS
WINSLOW        PTCLDY    18   5  57 SW3       29.89R
SAINT JOHNS    LGT SNOW  24  23  96 NW9       29.87R FOG     WCI  14
WINDOW ROCK    CLOUDY    20  11  68 W6        29.81R WCI  12
SHOW LOW       LGT SNOW  23  21  93 SW7       29.88R WCI  15
$$

AZZ540-542>544-546-548-201000-
GREATER PHOENIX AREA

CITY           SKY/WX    TMP DP  RH WIND       PRES   REMARKS
PHOENIX        MOCLDY    47  12  24 W6        29.94R
BUCKEYE        PTCLDY    39   9  28 N7        29.97R WCI  34
LUKE AFB       CLEAR     42  17  36 CALM      29.94R
DEER VALLEY    CLEAR     40  15  36 CALM      29.94R
SCOTTSDALE     CLOUDY    45  13  27 N3        29.95R
MESA-GATEWAY   CLOUDY    49  12  22 W7        29.95R
$$

AZZ539-553-201000-
SOUTHWEST MARICOPA COUNTY AND PINAL COUNTY

CITY           SKY/WX    TMP DP  RH WIND       PRES   REMARKS
CASA GRANDE      N/A     48  20  32 W12       29.96R
GILA BEND      MOCLDY    46  21  37 SW10      29.97R
$$

AZZ503-504-507>509-201000-
SOUTHEAST ARIZONA

CITY           SKY/WX    TMP DP  RH WIND       PRES   REMARKS
TUCSON         CLOUDY    46  37  71 W9        29.96R
DAVIS-MONTHAN  CLOUDY    43  38  83 NW9       29.95R
NOGALES        LGT RAIN  45  41  86 SW9       29.93R
SIERRA VISTA   CLOUDY    46  32  58 SW8       29.91S
DOUGLAS        CLOUDY    49  32  52 SW16      29.91S
SAFFORD        CLOUDY    43  33  68 NW12      29.88S
$$

AZZ532-201000-
SOUTHWEST ARIZONA

CITY           SKY/WX    TMP DP  RH WIND       PRES   REMARKS
YUMA           CLEAR     47  28  47 W5        30.02R
$$

CAZ041-043-047-048-061-525>527-560>570-201000-
SOUTHERN CALIFORNIA

CITY           SKY/WX    TMP DP  RH WIND       PRES   REMARKS
DOWNTOWN L.A.  LGT RAIN  47  18  31 NW6       30.05S
L.A. AIRPORT   CLEAR     49  18  29 NW10      30.07S
SAN DIEGO      PTCLDY    50  14  23 N6        30.08R
BURBANK        CLEAR     44  18  35 W5        30.04R
ONTARIO        CLEAR     40  17  39 NE5       30.04R
RIVERSIDE      CLEAR     37  16  42 S3        30.05R
PALM SPRINGS   CLEAR     45  27  49 NW3       30.04R
EL CENTRO NAS  CLEAR     44  29  55 W8        30.04R
IMPERIAL       CLEAR     44  31  60 W5        30.02R
BLYTHE         PTCLDY    42   8  24 W5        30.01R
NEEDLES        CLEAR     45  10  24 NW10      30.00R
$$

NVZ020-UTZ003-201000-
SOUTHERN NEVADA-UTAH

CITY           SKY/WX    TMP DP  RH WIND       PRES   REMARKS
LAS VEGAS      PTCLDY    40   5  23 NW14G24   29.98R WCI  32
SALT LAKE CITY MOCLDY    20  16  84 N8        29.88R WCI  10
$$

NMZ009-TXZ055-201000-
NEW MEXICO-WEST TEXAS

CITY           SKY/WX    TMP DP  RH WIND       PRES   REMARKS
ALBUQUERQUE    FLURRIES  32  21  64 N17       29.83R WCI  21
EL PASO        PTCLDY    54  34  46 SW20      29.83R
$$


........................KEY........................
SKY/WX - SKY CONDITION/WEATHER
TMP    - TEMPERATURE IN FAHRENHEIT
DP     - DEW POINT IN FAHRENHEIT
RH     - RELATIVE HUMIDITY IN PERCENT
WIND   - DIRECTION AND SPEED IN MILES PER HOUR (MPH)
VRB    - VARIABLE WIND DIRECTION
PRES   - MEAN SEA LEVEL PRESSURE IN INCHES OF MERCURY
         F - FALLING PRESSURE   R - RISING PRESSURE
         S - STEADY PRESSURE
VSB    - VISIBILITY IN MILES
HX     - HEAT INDEX IN FAHRENHEIT
WCI    - WIND CHILL INDEX IN FAHRENHEIT
TC     - TEMPERATURE IN CELSIUS WHICH IS ALSO KNOWN AS
         TEMPERATURE IN CENTIGRADE
AFB    - AIR FORCE BASE
         LUKE AFB IS LUKE AIR FORCE BASE
         DAVIS-MONTHAN IS DAVIS-MONTHAN AIR FORCE BASE
NAS    - NAVAL AIR STATION
         EL CENTRO NAS IS EL CENTRO NAVAL AIR STATION
N/A    - NOT AVAILABLE





USA.gov is the U.S. government's official web portal to all federal, state and local government web resources and services.